Wind_Speed
8 7 6 5 6 7 7 8 8 8 8 10 12 13 15 18 20 22 24 25 27 29 31 33 36 39 41 43 45 47 49 50 51 54 57 61 64 68 71 77 82 89 94 96
9 7 6 5 5 6 7 7 6 7 8 10 12 13 15 18 20 22 24 26 28 31 34 36 39 41 44 46 48 49 50 51 52 54 58 62 65 69 73 78 84 91 94 93
10 8 6 6 6 7 7 7 6 6 7 8 11 12 14 17 19 22 24 27 30 34 37 39 42 44 46 49 51 53 54 55 55 57 60 63 67 70 75 80 86 91 93 89
11 9 8 7 7 7 8 7 6 6 6 7 8 10 13 17 19 22 25 28 31 35 39 42 44 46 49 51 54 57 59 60 60 60 62 65 69 72 76 81 87 91 90 85
12 11 10 9 9 9 8 8 7 7 7 8 10 11 14 16 18 21 25 28 31 35 39 43 46 49 51 53 56 59 63 64 64 63 64 67 70 73 77 83 87 89 87 82
14 13 12 11 11 10 10 9 9 9 9 9 11 13 15 17 20 22 25 28 32 35 39 44 47 50 53 56 59 62 65 68 69 67 67 69 72 74 78 83 87 88 84 79
16 15 14 13 13 12 12 11 11 11 11 12 12 14 16 18 21 23 26 29 32 36 40 44 48 52 55 58 61 64 66 70 72 71 70 71 73 75 79 83 87 86 82 77
18 16 16 15 15 14 14 14 14 14 15 14 14 15 17 19 21 24 27 31 34 37 41 45 49 53 56 60 62 65 68 71 74 74 73 73 74 76 79 83 86 85 81 75
21 18 17 17 17 16 16 16 17 17 17 17 18 19 19 20 22 25 28 32 35 38 41 45 49 53 57 61 64 66 69 72 75 76 75 74 75 77 80 83 86 84 80 74
22 21 18 19 19 19 19 19 19 19 20 21 21 22 23 24 26 28 31 33 36 39 43 46 50 54 58 61 65 67 70 72 75 78 77 76 76 77 79 83 85 83 79 73
23 23 20 21 20 21 22 21 22 22 23 25 25 24 26 27 29 32 34 37 39 42 45 48 51 54 58 61 65 68 70 73 76 78 79 77 76 77 79 82 84 82 78 72
24 25 23 22 23 24 24 24 24 26 26 27 29 26 28 30 31 32 35 38 41 44 47 50 52 55 58 61 65 68 70 73 75 78 80 78 77 76 78 81 83 81 76 72
25 26 25 25 25 26 26 26 27 29 30 30 30 28 30 33 33 35 36 38 41 45 48 51 53 55 58 61 64 67 70 72 75 78 80 79 77 76 78 81 82 80 75 71
27 26 26 27 28 27 28 28 31 33 33 33 32 30 28 34 37 38 40 42 44 46 49 52 55 56 58 61 63 66 69 72 74 77 79 79 78 76 77 80 81 79 75 70
29 28 28 28 30 32 31 30 32 35 35 36 34 34 31 35 37 39 42 44 46 49 51 54 56 57 58 61 63 65 68 71 73 76 78 79 78 77 76 78 80 78 74 69
31 31 30 30 32 36 35 31 33 35 35 36 37 37 34 40 40 41 44 46 48 50 53 55 57 58 59 60 62 64 67 70 72 74 77 79 78 77 76 77 78 78 74 68
33 34 34 33 34 38 36 32 34 37 37 37 39 39 39 43 43 43 46 48 49 51 53 56 58 59 60 60 61 62 65 69 71 73 76 78 78 76 75 75 77 77 74 69
35 35 38 38 38 40 34 34 35 38 39 40 41 42 44 46 46 46 48 50 51 53 54 57 59 60 60 60 59 61 64 67 70 72 74 76 77 76 74 74 75 76 74 69
37 38 39 41 42 43 36 35 37 40 41 41 44 45 47 48 49 48 50 52 53 54 56 57 59 60 59 59 58 59 62 65 69 70 72 74 75 75 74 73 74 75 73 69
39 40 42 43 45 46 40 38 39 41 41 42 45 47 49 51 52 52 53 54 55 56 56 57 58 59 59 58 57 58 61 64 67 69 70 72 74 74 73 72 72 73 73 70
43 43 43 44 47 48 42 41 41 40 41 43 46 49 51 53 55 56 56 56 57 58 57 57 57 57 57 57 56 56 59 62 66 68 69 70 72 73 72 71 70 71 72 69
48 47 47 46 49 48 43 42 41 41 42 44 48 51 53 55 56 57 57 58 58 58 58 56 56 56 55 56 55 55 57 61 64 67 68 68 70 71 71 69 69 69 70 69
54 52 51 53 53 49 48 45 44 44 46 48 51 53 55 56 57 57 57 59 59 59 58 57 56 55 54 55 55 55 56 60 63 66 66 66 67 69 69 68 67 67 68 67
58 57 59 59 57 54 53 52 50 51 53 53 54 55 56 57 58 58 58 60 60 60 60 59 58 56 55 55 55 55 56 59 61 64 65 65 65 67 67 66 65 64 66 66
62 63 64 64 62 61 59 58 58 59 59 58 58 59 60 61 60 60 61 61 62 62 62 61 60 59 57 56 56 56 57 59 61 63 64 63 62 64 65 64 63 62 63 65
62 64 67 67 64 67 65 63 63 64 63 63 63 63 62 63 63 63 63 63 63 63 63 62 62 61 59 57 57 57 57 59 60 62 62 61 60 61 62 62 61 60 61 63
Wind_Direction
325 327 330 336 336 337 339 342 349 358 7 12 15 13 12 10 9 7 5 2 1 360 359 356 353 351 348 344 340 335 330 327 325 325 326 327 327 327 327 327 327 328 328 328
322 318 320 323 324 324 325 329 341 356 3 9 11 13 13 14 13 11 9 6 4 2 0 358 355 353 351 349 346 342 338 334 331 329 329 330 330 330 330 330 330 331 331 331
318 312 307 305 307 308 308 315 329 345 356 4 6 8 9 14 13 10 8 5 2 360 358 356 355 353 352 351 350 348 345 341 337 334 333 334 334 333 332 332 332 333 334 334
314 307 298 293 292 294 297 302 316 328 338 344 355 359 5 9 9 7 5 3 2 360 358 356 355 353 352 352 351 351 349 346 342 339 337 337 336 335 334 334 334 336 336 336
308 300 291 286 282 284 289 294 303 310 315 324 336 349 359 2 4 2 2 2 2 1 359 357 356 354 353 352 352 351 351 349 346 342 340 339 338 337 336 336 337 338 339 338
304 296 287 280 276 278 281 284 289 295 303 307 324 339 345 352 354 357 358 359 360 360 359 358 357 356 355 354 353 352 351 351 349 346 343 342 340 339 338 338 340 341 341 340
299 293 285 276 270 269 272 277 282 284 289 300 315 328 334 340 344 348 351 354 355 356 357 357 356 356 355 354 353 353 352 351 350 348 345 344 342 341 340 340 342 343 343 343
296 291 283 274 266 264 265 268 272 279 290 299 307 315 323 328 334 339 344 347 349 351 353 353 354 354 354 353 353 353 352 351 350 349 347 345 344 342 342 342 344 345 346 345
293 290 281 273 265 260 261 262 268 276 285 292 299 305 312 320 327 332 337 341 343 346 348 350 350 351 352 352 352 352 352 351 351 350 349 347 345 344 343 344 346 347 347 347
290 287 280 273 265 259 258 261 266 273 281 287 295 303 312 318 322 328 333 336 338 340 343 346 347 348 349 350 351 351 351 351 350 350 349 348 346 345 344 345 347 349 349 349
286 284 278 270 264 258 258 260 265 271 280 288 295 305 309 315 320 325 329 331 333 336 339 342 344 345 347 348 349 349 350 350 350 350 350 349 347 346 345 346 349 350 351 351
284 282 277 270 263 260 259 261 266 271 278 285 293 305 306 311 316 320 323 326 329 332 335 338 340 342 344 345 347 348 349 349 350 350 350 349 348 346 346 347 350 352 352 352
281 280 277 272 265 263 262 262 266 271 277 284 292 303 305 308 312 316 319 322 325 328 331 334 336 339 341 343 344 346 347 348 349 349 350 350 348 347 347 348 351 353 353 353
281 279 277 274 271 266 262 263 267 272 278 284 291 297 302 303 308 313 316 319 322 325 328 330 333 335 338 340 341 343 345 347 348 349 350 350 349 347 347 348 351 354 355 354
281 279 276 273 271 270 267 266 268 273 279 284 292 294 301 297 303 309 311 315 318 322 324 327 329 332 335 337 339 341 343 346 347 348 349 349 349 348 348 349 352 354 356 356
281 281 277 273 271 272 272 273 273 274 277 282 287 291 295 293 299 304 307 310 314 317 320 323 326 329 332 334 336 338 341 344 346 347 348 349 349 348 348 349 352 355 357 357
279 280 279 277 273 273 275 276 273 274 277 279 284 289 288 290 295 300 302 305 310 314 317 320 323 326 328 331 334 336 339 342 344 346 347 348 349 348 348 349 351 355 357 358
277 278 279 280 278 277 281 278 276 274 276 279 283 285 287 290 293 297 299 303 307 311 314 317 320 322 325 328 332 334 337 340 343 345 346 347 348 348 348 349 351 354 357 358
276 277 278 279 280 280 282 282 279 278 279 281 282 284 286 289 292 294 297 301 304 307 311 314 317 319 323 326 329 332 335 338 341 343 345 346 347 347 347 349 351 354 357 359
273 275 276 278 280 282 286 286 285 283 283 281 282 284 286 288 291 293 295 298 301 304 308 311 314 317 320 324 327 330 333 336 339 342 344 345 346 347 347 348 350 353 356 359
272 272 274 277 280 282 289 290 289 289 287 285 285 285 287 288 291 293 295 297 300 303 306 309 312 315 319 322 325 328 331 334 337 340 342 344 345 346 346 347 349 352 356 359
272 272 274 276 277 282 286 286 288 288 286 285 285 285 287 289 291 293 295 297 300 302 305 308 311 314 317 320 323 325 328 331 335 338 340 342 344 345 345 346 348 351 355 358
272 274 274 274 277 280 281 283 284 284 283 283 284 286 287 289 291 293 295 297 299 302 304 307 309 312 315 317 320 322 325 328 332 335 338 340 342 344 344 345 347 350 354 357
274 274 274 275 277 278 279 280 281 280 281 282 283 284 285 287 289 291 293 294 297 299 301 304 306 308 311 314 316 319 321 325 329 332 335 338 340 342 343 344 346 349 352 356
273 275 277 278 280 280 279 280 280 280 281 282 283 283 284 285 286 288 289 291 293 295 297 299 302 304 307 310 312 314 317 321 325 329 332 335 338 341 341 342 344 347 350 354
276 276 278 279 281 281 281 281 281 282 282 283 283 283 283 283 284 285 286 287 288 290 292 295 297 300 302 305 307 309 312 316 321 325 328 331 335 338 340 341 342 345 348 352
Height
5882 5882 5880 5878 5877 5876 5875 5873 5872 5870 5867 5865 5863 5860 5858 5854 5851 5848 5844 5841 5837 5833 5828 5823 5817 5811 5805 5798 5790 5781 5773 5764 5754 5745 5735 5723 5710 5697 5682 5666 5648 5629 5607 5583
5881 5879 5878 5876 5875 5875 5873 5872 5871 5869 5866 5864 5861 5859 5856 5853 5850 5846 5843 5839 5835 5830 5825 5820 5814 5807 5800 5792 5784 5775 5765 5755 5745 5735 5724 5712 5699 5684 5669 5652 5633 5611 5588 5565
5878 5878 5876 5875 5874 5873 5872 5871 5869 5867 5865 5862 5860 5858 5855 5851 5848 5845 5841 5836 5832 5826 5821 5816 5809 5802 5794 5786 5778 5768 5757 5747 5736 5724 5713 5700 5686 5671 5655 5637 5617 5595 5571 5548
5876 5875 5874 5873 5872 5871 5870 5869 5867 5865 5864 5862 5860 5857 5853 5849 5845 5842 5838 5833 5828 5823 5817 5811 5804 5797 5789 5780 5770 5760 5749 5738 5726 5714 5702 5688 5674 5659 5643 5624 5603 5581 5557 5534
5874 5872 5872 5871 5870 5869 5868 5867 5866 5864 5862 5860 5857 5855 5852 5847 5844 5840 5835 5830 5825 5819 5812 5806 5799 5791 5783 5773 5763 5753 5741 5729 5717 5704 5691 5677 5663 5647 5630 5611 5591 5568 5545 5523
5871 5870 5869 5868 5868 5867 5866 5865 5863 5861 5859 5858 5854 5851 5848 5844 5840 5836 5832 5826 5821 5815 5809 5801 5794 5785 5776 5767 5756 5745 5733 5721 5708 5695 5681 5667 5652 5636 5619 5600 5579 5557 5535 5513
5868 5867 5866 5865 5865 5864 5863 5862 5861 5858 5856 5855 5851 5848 5845 5841 5836 5832 5827 5823 5817 5811 5804 5796 5788 5780 5770 5760 5749 5738 5725 5713 5700 5686 5671 5657 5642 5626 5608 5589 5569 5548 5526 5506
5864 5865 5863 5862 5861 5861 5860 5859 5858 5856 5853 5850 5847 5844 5843 5838 5833 5828 5823 5817 5811 5805 5799 5791 5783 5774 5764 5754 5743 5731 5718 5705 5691 5677 5662 5648 5632 5616 5599 5580 5560 5538 5517 5498
5860 5860 5859 5858 5857 5857 5856 5854 5853 5852 5848 5846 5844 5841 5838 5834 5829 5825 5819 5813 5807 5800 5793 5786 5777 5768 5758 5748 5736 5724 5711 5698 5684 5669 5654 5639 5623 5607 5590 5571 5551 5530 5510 5491
5855 5855 5855 5853 5853 5852 5852 5850 5849 5846 5844 5841 5839 5836 5833 5828 5824 5819 5814 5808 5802 5795 5788 5780 5771 5762 5752 5742 5730 5718 5705 5691 5677 5662 5647 5631 5615 5599 5582 5564 5544 5524 5504 5485
5850 5849 5850 5849 5848 5847 5846 5845 5843 5841 5839 5836 5832 5833 5827 5822 5817 5812 5807 5801 5796 5789 5782 5774 5765 5756 5746 5736 5724 5712 5698 5685 5670 5656 5640 5624 5608 5592 5575 5557 5538 5518 5498 5480
5844 5843 5843 5843 5842 5840 5840 5839 5838 5836 5834 5829 5826 5828 5820 5816 5811 5807 5802 5795 5789 5782 5775 5767 5759 5750 5740 5729 5718 5706 5693 5679 5664 5650 5634 5618 5602 5586 5569 5552 5533 5513 5494 5476
5839 5838 5837 5836 5837 5836 5834 5833 5831 5828 5826 5823 5820 5822 5815 5810 5805 5801 5796 5790 5783 5777 5769 5761 5753 5744 5734 5724 5712 5700 5687 5673 5659 5644 5629 5613 5597 5581 5564 5547 5528 5509 5490 5473
5833 5832 5832 5830 5828 5828 5827 5827 5824 5821 5819 5816 5815 5814 5811 5803 5797 5793 5788 5783 5776 5770 5763 5755 5746 5738 5728 5718 5707 5695 5682 5668 5654 5639 5624 5608 5592 5576 5559 5542 5524 5506 5487 5470
5826 5826 5825 5823 5821 5819 5819 5820 5817 5814 5812 5809 5808 5805 5804 5797 5792 5787 5780 5774 5769 5762 5755 5748 5739 5731 5722 5712 5701 5690 5677 5664 5649 5635 5619 5604 5588 5572 5555 5538 5521 5503 5485 5468
5820 5819 5818 5817 5814 5810 5810 5813 5810 5806 5805 5802 5799 5797 5796 5788 5785 5780 5774 5768 5762 5755 5748 5741 5732 5724 5715 5706 5695 5684 5672 5659 5645 5630 5615 5600 5584 5568 5552 5535 5518 5501 5483 5467
5813 5811 5809 5809 5807 5803 5804 5806 5802 5798 5797 5794 5790 5790 5785 5780 5776 5773 5767 5760 5755 5748 5741 5733 5725 5717 5708 5699 5689 5678 5666 5654 5640 5626 5611 5596 5580 5565 5549 5533 5517 5500 5483 5466
5805 5803 5800 5798 5798 5795 5801 5797 5794 5790 5789 5786 5783 5779 5775 5771 5767 5764 5757 5751 5746 5740 5733 5726 5718 5710 5701 5692 5683 5672 5661 5649 5635 5622 5607 5592 5577 5562 5546 5531 5515 5498 5482 5466
5796 5794 5791 5788 5786 5785 5790 5788 5783 5780 5780 5778 5772 5769 5765 5761 5757 5754 5748 5742 5737 5731 5725 5718 5710 5702 5694 5685 5676 5666 5655 5643 5631 5617 5603 5589 5574 5559 5544 5529 5513 5497 5481 5466
5786 5783 5782 5779 5775 5774 5780 5777 5772 5770 5770 5767 5762 5758 5755 5750 5747 5745 5739 5733 5727 5722 5716 5709 5702 5694 5686 5677 5668 5659 5649 5638 5626 5613 5599 5586 5571 5556 5542 5527 5512 5496 5480 5465
5775 5773 5772 5769 5765 5764 5769 5765 5761 5760 5759 5755 5750 5746 5743 5739 5735 5731 5727 5722 5716 5711 5706 5699 5692 5685 5677 5669 5660 5652 5642 5632 5621 5608 5595 5582 5568 5554 5539 5525 5511 5496 5480 5465
5763 5762 5761 5759 5755 5758 5759 5754 5751 5749 5746 5743 5738 5734 5731 5727 5723 5719 5715 5710 5704 5699 5694 5688 5682 5675 5668 5660 5652 5645 5636 5626 5615 5604 5592 5579 5565 5552 5537 5523 5509 5495 5480 5465
5750 5751 5748 5746 5747 5748 5745 5743 5740 5736 5734 5731 5727 5723 5719 5715 5711 5706 5702 5697 5692 5687 5682 5677 5671 5665 5658 5651 5644 5637 5628 5619 5609 5599 5587 5575 5562 5549 5535 5521 5508 5494 5480 5466
5736 5736 5733 5732 5734 5734 5731 5729 5727 5722 5719 5717 5715 5711 5707 5702 5698 5694 5690 5685 5679 5674 5669 5664 5659 5654 5648 5642 5635 5628 5621 5612 5603 5593 5582 5571 5559 5547 5533 5520 5507 5494 5481 5467
5723 5720 5717 5716 5719 5717 5717 5715 5711 5706 5704 5702 5701 5698 5693 5688 5684 5680 5676 5671 5666 5661 5656 5651 5647 5642 5638 5632 5626 5619 5612 5605 5597 5588 5578 5567 5555 5544 5532 5519 5506 5494 5481 5468
5711 5707 5702 5700 5703 5695 5695 5697 5694 5689 5688 5686 5683 5680 5678 5672 5667 5664 5660 5656 5651 5647 5642 5638 5634 5630 5626 5622 5616 5610 5604 5597 5589 5581 5572 5562 5551 5540 5529 5517 5505 5493 5481 5468